Temperature
17 17 17 17 17 17 17 17 17 17 16 16 16 16 16 16 16 16 16 16 16 16 16 16 16 15 15 15 15 15 15 15 15 15 15 15 15 15 15 15 15 14 14
18 18 17 17 17 17 17 17 17 17 17 17 17 17 16 16 16 16 16 16 16 16 16 16 16 16 16 15 15 15 15 15 15 15 16 15 15 15 15 15 15 15 14
18 18 17 17 17 18 18 17 17 17 17 17 17 17 17 17 17 17 16 16 16 16 16 16 16 16 16 16 15 15 15 15 15 15 15 15 15 15 15 15 15 15 15
18 18 18 18 18 18 18 17 17 17 17 17 17 17 17 17 17 17 16 16 16 16 16 16 16 16 16 15 15 15 15 15 15 15 15 15 15 15 15 15 15 15 15
18 18 18 18 18 18 18 17 17 17 17 17 17 17 16 16 16 16 16 16 16 16 16 16 16 15 15 15 15 15 15 14 14 14 14 15 15 15 15 15 14 15 15
18 18 18 18 18 17 17 17 17 17 17 17 17 16 16 16 16 16 16 16 16 16 16 15 15 15 15 14 14 14 14 14 14 14 14 14 14 14 14 14 14 14 14
18 18 18 17 17 17 17 17 17 16 16 16 16 16 16 16 15 15 15 15 15 15 15 15 14 14 14 14 14 14 13 13 13 13 13 13 13 13 13 13 13 13 13
17 17 17 16 16 16 16 16 16 16 15 15 15 15 15 15 15 14 14 14 14 14 14 13 13 13 13 13 13 13 13 13 13 12 12 12 12 12 12 12 12 12 12
16 16 16 16 15 15 15 15 15 15 14 14 14 14 14 14 13 13 13 13 13 13 12 12 12 12 12 12 12 12 12 12 12 12 12 12 12 12 12 12 12 12 12
15 15 14 14 14 14 14 14 14 14 14 13 13 13 13 13 12 12 12 12 12 12 12 11 11 11 11 11 11 11 11 11 11 11 11 11 11 11 11 11 11 11 11
13 14 13 13 13 13 13 13 13 13 13 12 12 12 12 12 11 11 11 11 11 11 11 10 10 10 10 10 10 9 9 9 9 10 10 10 11 11 11 11 11 10 10
13 13 13 13 12 12 12 12 12 12 12 11 11 11 11 11 10 10 10 10 9 9 9 9 9 9 9 9 9 9 8 8 8 8 8 9 9 9 10 10 10 10 10
12 12 12 12 12 12 11 11 11 11 11 11 11 10 10 10 10 9 9 9 9 8 8 8 8 8 8 7 8 7 7 7 7 7 7 7 7 8 8 8 9 9 9
11 11 11 11 11 11 11 11 11 10 10 10 10 10 9 9 9 8 8 8 8 7 7 7 7 7 6 6 6 6 6 6 6 6 6 6 7 7 7 7 8 8 8
11 11 11 10 10 10 10 10 10 10 10 9 9 9 9 8 8 7 7 7 7 6 6 6 6 6 6 5 5 5 5 5 5 5 5 5 6 6 6 7 7 7 7
10 10 10 10 10 10 10 10 9 9 9 9 8 8 8 7 7 6 6 6 6 5 5 5 5 4 4 4 4 4 4 4 4 4 4 4 4 5 5 6 6 6 6
10 10 10 9 9 9 9 9 9 9 8 8 8 7 7 6 6 6 5 5 5 4 4 4 4 3 3 3 3 3 3 3 3 3 3 3 4 4 4 4 4 5 5
9 9 9 9 9 9 8 8 8 8 7 7 6 6 6 5 5 5 4 4 4 4 3 3 2 2 2 2 2 2 2 2 2 2 3 3 3 3 3 4 4 4 4
9 9 9 8 8 8 8 7 7 7 6 6 5 5 5 4 4 4 3 3 3 2 2 2 2 1 1 1 1 1 2 2 2 2 2 2 2 3 3 3 3 4 4
8 8 8 8 7 7 7 6 6 5 5 4 4 3 3 3 3 2 2 2 1 1 1 1 1 1 1 1 1 1 1 1 1 1 2 2 2 2 2 3 3 3 4
8 7 7 7 6 6 6 5 5 4 4 3 2 2 2 1 1 1 1 1 0 0 0 0 0 0 0 0 0 0 0 0 1 1 1 1 2 2 2 2 3 3 3
7 6 6 6 6 5 4 4 4 3 2 2 2 1 1 1 1 0 0 -0 -0 -0 -0 -0 -0 -0 -0 -0 -0 -0 -0 0 0 0 1 1 1 2 2 2 3 3 3
6 6 5 5 4 4 3 3 3 2 2 1 1 1 1 0 0 -0 -0 -0 -1 -1 -1 -1 -1 -1 -1 -1 -1 -1 -0 -0 -0 0 0 1 1 2 2 2 3 3 3
5 5 5 4 4 3 3 2 2 1 1 1 1 0 0 -0 -0 -0 -1 -1 -1 -1 -1 -1 -1 -1 -1 -1 -1 -1 -1 -0 -0 0 0 1 1 1 2 2 2 3 3
4 4 4 3 3 2 2 2 1 1 1 0 0 -0 -0 -0 -1 -1 -1 -1 -1 -1 -1 -1 -1 -1 -1 -1 -1 -1 -0 -0 0 0 1 1 1 2 2 2 2 3 3
4 3 3 2 2 2 1 1 1 0 0 0 -0 -0 -1 -1 -1 -1 -1 -1 -1 -1 -1 -1 -1 -1 -1 -1 -1 -0 -0 -0 0 0 1 1 1 1 2 2 2 2 3
Wind_Speed
10 9 8 7 7 7 6 7 7 6 7 8 9 9 9 8 7 6 6 5 5 5 4 4 5 4 3 2 1 1 2 3 4 5 3 3 3 4 5 12 15 16 17
10 9 8 8 7 7 7 7 7 7 7 8 9 9 9 9 8 8 8 7 7 7 7 6 7 5 5 4 4 4 4 4 5 6 4 3 5 5 5 5 10 14 16
9 8 8 7 7 7 7 7 6 7 7 8 8 9 9 9 9 9 9 8 8 8 8 8 8 7 7 6 6 6 5 5 5 5 6 4 5 5 5 6 6 7 13
9 9 8 8 8 7 7 7 7 7 7 7 8 8 9 9 9 9 9 9 9 9 8 9 9 9 9 9 8 8 7 7 6 6 7 6 6 6 4 6 7 6 7
8 8 8 7 6 6 6 6 6 6 7 7 7 7 7 7 7 8 8 8 8 8 8 8 9 10 12 10 8 7 7 7 7 7 9 7 7 6 6 6 8 8 7
6 5 3 3 3 3 3 3 3 3 4 4 5 5 5 5 5 8 7 6 5 6 6 6 7 7 8 10 11 10 9 9 9 8 9 10 11 9 8 7 7 7 8
7 5 5 4 3 2 2 2 1 0 0 1 2 3 2 2 3 3 5 3 2 3 3 4 4 4 4 4 6 8 9 12 12 10 11 12 11 9 8 9 9 10 11
9 7 7 6 5 6 5 4 3 2 3 2 2 2 3 2 2 2 1 1 1 2 2 2 2 3 5 5 5 5 6 7 9 9 10 12 11 9 9 11 12 11 9
10 8 7 7 8 7 6 5 4 4 5 4 4 5 5 4 5 5 4 3 3 4 5 5 4 4 7 9 6 7 8 9 10 12 13 14 17 18 14 9 8 9 12
8 8 7 7 7 7 5 4 4 5 5 5 6 5 6 5 6 7 7 4 4 4 4 5 6 6 8 9 6 6 9 10 10 12 11 12 11 13 16 12 11 12 11
7 8 8 7 7 6 5 5 6 6 7 7 7 6 6 7 9 10 9 5 4 3 3 3 4 9 11 12 9 6 10 11 9 9 10 10 9 9 9 8 10 11 13
8 8 6 5 5 6 6 5 5 6 7 6 6 5 4 5 7 8 9 7 4 2 2 3 5 11 13 14 10 11 14 12 7 7 7 8 8 9 9 10 9 11 14
8 7 6 5 5 4 5 5 4 4 4 3 3 3 3 3 4 6 6 5 5 2 3 7 10 12 12 10 11 13 11 7 6 6 7 8 8 9 9 9 9 10 11
7 6 5 6 5 5 4 3 3 2 3 2 2 2 2 2 2 3 3 4 5 4 4 7 10 10 8 8 9 8 6 6 6 6 7 7 7 7 8 8 9 9 9
7 6 6 5 5 4 4 2 2 1 2 3 2 2 2 1 3 3 3 3 4 4 4 3 4 5 6 6 6 6 6 6 7 6 7 8 8 8 9 8 8 9 10
6 5 4 4 4 4 4 5 7 6 8 8 8 6 3 2 4 6 7 8 8 6 3 3 4 5 5 6 7 7 6 7 7 8 8 8 9 9 10 9 9 9 11
5 4 3 3 3 3 3 4 4 7 11 12 11 10 8 8 9 9 10 9 8 7 3 3 4 5 6 6 6 7 7 7 8 8 9 9 10 10 10 10 10 10 11
4 4 4 3 3 4 4 4 4 4 4 5 6 10 10 10 10 10 9 7 6 5 3 4 5 6 6 7 7 7 8 8 8 8 9 10 10 10 11 11 11 12 12
4 3 3 4 4 5 5 5 5 6 4 3 4 6 9 9 9 9 8 4 4 5 5 6 6 6 7 7 7 8 8 9 9 9 10 10 10 11 12 12 12 15 13
4 6 6 5 5 5 6 6 5 5 4 4 4 4 5 5 5 6 5 5 5 5 6 6 7 7 7 8 8 8 8 9 10 9 10 10 10 11 12 14 13 13 12
3 5 8 6 5 5 5 5 5 4 4 3 3 4 6 3 4 5 5 5 5 6 7 7 7 8 8 8 8 9 10 9 9 10 10 11 11 12 12 12 13 13 13
4 4 4 5 5 5 4 4 4 3 3 3 3 4 6 4 4 5 5 6 6 6 6 7 7 7 8 8 9 9 10 10 10 10 11 12 12 12 12 12 13 13 12
4 5 5 5 4 5 5 4 3 3 2 2 3 3 4 4 5 5 5 6 6 7 7 7 7 8 8 9 9 8 9 10 10 12 13 13 12 12 12 12 14 14 13
5 5 5 4 4 3 3 2 2 2 2 3 3 3 4 4 5 6 6 6 7 7 8 8 8 10 12 11 12 13 13 14 15 12 14 13 13 12 12 12 13 14 13
5 5 4 3 3 2 2 2 2 3 3 3 3 4 4 5 5 6 6 7 8 8 10 11 11 11 13 15 15 16 18 20 19 16 13 11 12 13 13 13 12 13 13
4 4 3 3 2 2 2 2 2 3 3 4 4 4 4 5 5 6 7 7 9 9 10 11 14 16 17 16 18 21 21 20 19 18 14 10 11 11 12 11 14 13 13
Wind_Direction
188 189 187 189 190 187 191 198 197 197 191 186 186 187 191 194 193 191 202 204 208 226 229 221 235 233 240 247 221 188 188 175 224 270 263 273 258 251 246 237 242 241 241
190 189 193 193 191 196 204 206 199 195 193 191 188 190 198 201 199 199 210 213 213 224 231 229 237 236 236 239 235 236 230 210 213 259 275 271 257 249 242 240 243 244 242
183 186 194 195 195 203 210 211 205 200 197 193 191 196 204 205 205 208 211 216 218 223 225 226 232 229 237 236 233 236 239 238 219 239 266 261 264 260 261 261 253 249 250
183 185 191 197 200 204 208 208 208 203 199 199 199 202 205 207 208 212 213 219 225 229 228 228 230 226 231 232 235 234 234 241 239 245 261 264 261 260 249 259 271 258 256
179 190 201 201 202 202 206 213 213 208 210 204 203 208 209 211 217 214 217 223 226 234 238 237 238 236 234 234 239 235 232 239 243 248 259 266 264 259 251 246 259 266 263
148 170 172 159 168 190 206 215 222 228 226 207 204 209 214 225 226 216 209 222 225 233 245 254 257 255 256 252 252 249 237 239 246 248 255 257 262 255 254 250 254 262 271
119 112 104 109 113 107 103 90 100 197 140 181 186 183 188 217 233 218 213 214 239 255 264 274 280 294 303 293 283 278 268 259 251 251 257 259 263 257 250 254 249 247 256
95 90 88 94 94 84 76 72 65 69 71 74 83 103 102 75 86 106 113 104 50 355 342 332 334 357 3 351 330 320 304 292 278 266 261 267 269 264 250 253 257 259 258
90 87 87 92 91 85 78 68 63 70 67 63 64 75 80 57 60 70 79 64 41 19 16 24 26 17 9 11 357 331 315 305 301 294 286 279 278 275 269 268 262 261 268
91 90 88 91 92 91 86 76 67 77 76 72 66 70 75 65 60 72 82 70 51 30 19 19 25 19 3 1 348 320 305 301 306 308 302 295 283 276 270 255 254 258 265
90 88 86 87 92 90 83 74 74 75 72 68 69 67 72 75 66 69 74 74 68 42 13 347 330 339 338 332 323 289 281 290 295 292 293 292 289 282 274 261 250 251 258
78 77 75 76 81 85 78 68 74 84 83 80 79 68 62 65 69 68 66 66 67 62 327 309 311 323 326 323 317 302 302 304 293 290 290 290 289 287 284 278 267 260 257
69 64 61 57 56 69 81 79 78 86 93 90 91 87 67 53 50 55 51 38 25 7 303 307 313 316 320 318 314 315 319 316 310 304 299 294 289 286 288 288 285 277 269
62 50 46 47 41 43 55 76 91 99 101 101 105 109 94 47 14 5 4 358 350 342 325 317 316 317 319 311 314 320 320 313 312 305 304 301 302 300 298 295 293 292 289
58 47 42 43 44 39 35 41 66 85 134 127 122 122 111 47 328 346 359 338 324 311 323 333 340 337 336 329 322 317 318 323 321 313 308 308 308 305 302 301 292 292 286
55 41 37 38 36 39 42 38 44 56 71 83 90 95 84 53 7 6 358 350 347 354 19 345 328 323 320 319 319 318 317 316 314 311 309 306 306 305 302 299 292 289 288
62 44 35 32 30 30 44 61 51 41 57 68 68 62 53 32 23 12 3 359 0 10 12 327 316 312 310 310 311 310 309 309 309 308 307 305 303 302 302 300 295 290 287
50 38 40 34 37 47 57 65 74 76 59 43 39 35 29 24 19 14 10 13 360 357 336 318 311 309 309 309 310 310 309 310 309 308 307 305 304 303 303 301 297 292 291
42 28 40 53 58 63 66 67 67 68 64 48 26 11 7 6 10 11 14 12 342 332 326 317 312 312 311 309 307 306 306 306 305 306 305 305 306 305 302 299 299 294 288
34 48 64 69 67 68 67 67 63 62 57 48 33 6 355 9 7 355 356 349 341 331 326 321 317 313 312 310 308 306 305 304 305 304 304 304 304 302 301 301 299 299 296
45 54 69 75 73 75 75 74 70 65 54 38 13 3 15 8 349 340 340 337 333 327 324 321 318 316 314 312 310 308 306 305 306 307 306 306 304 302 300 298 297 297 295
72 70 72 79 80 76 75 72 71 66 49 32 356 349 358 358 337 330 327 323 320 315 310 309 310 309 310 312 313 312 312 312 313 312 310 306 303 301 299 298 298 298 300
80 82 76 72 76 76 72 64 60 50 22 356 341 337 338 334 330 326 323 322 320 317 315 312 312 311 313 315 313 310 311 312 313 310 307 303 302 302 302 302 303 304 304
82 83 84 81 75 71 67 55 41 19 352 335 331 329 327 327 326 327 326 323 321 319 319 319 316 314 317 322 321 319 317 319 319 311 304 299 299 298 299 299 300 301 304
84 83 82 81 75 66 54 38 15 357 348 339 336 336 335 336 336 335 334 331 329 328 327 328 327 326 325 325 326 325 324 320 315 313 307 298 295 295 297 297 299 302 303
82 81 75 70 64 51 47 27 0 355 354 352 352 350 348 348 345 342 340 340 339 335 332 332 332 331 329 330 329 327 323 320 317 314 309 299 297 298 302 301 301 302 303
Height
1522 1525 1528 1531 1534 1536 1538 1540 1542 1543 1544 1546 1547 1548 1549 1549 1550 1551 1551 1552 1553 1553 1554 1555 1556 1557 1557 1558 1558 1558 1558 1558 1556 1556 1556 1556 1555 1555 1555 1554 1553 1553 1552
1520 1524 1526 1529 1532 1534 1536 1538 1540 1541 1542 1544 1545 1546 1547 1548 1548 1549 1550 1550 1551 1552 1552 1553 1554 1554 1555 1555 1555 1555 1555 1555 1554 1552 1552 1552 1552 1551 1551 1550 1549 1548 1547
1518 1522 1524 1527 1529 1531 1533 1536 1537 1539 1540 1541 1542 1543 1544 1545 1546 1547 1547 1548 1549 1549 1550 1550 1551 1551 1552 1552 1552 1552 1552 1552 1551 1549 1547 1547 1547 1547 1546 1545 1544 1543 1542
1516 1519 1521 1524 1526 1528 1531 1533 1534 1536 1537 1538 1539 1540 1541 1542 1543 1544 1544 1545 1545 1546 1547 1547 1548 1548 1548 1548 1548 1548 1547 1547 1546 1544 1542 1542 1541 1541 1541 1539 1538 1537 1536
1514 1516 1519 1521 1525 1527 1528 1530 1531 1532 1533 1534 1536 1536 1537 1538 1539 1539 1540 1541 1541 1542 1542 1543 1543 1543 1543 1543 1543 1542 1542 1541 1540 1539 1537 1536 1534 1534 1534 1533 1531 1530 1529
1512 1514 1517 1518 1521 1523 1525 1526 1527 1528 1529 1531 1531 1532 1532 1533 1534 1535 1536 1536 1537 1537 1537 1537 1538 1538 1537 1537 1537 1536 1536 1535 1533 1532 1530 1529 1527 1527 1527 1526 1524 1523 1520
1510 1512 1515 1516 1518 1520 1521 1522 1523 1524 1525 1526 1527 1528 1528 1529 1530 1530 1531 1531 1532 1532 1531 1531 1531 1531 1531 1530 1529 1529 1528 1528 1527 1525 1523 1521 1520 1519 1519 1517 1516 1514 1511
1508 1510 1512 1514 1515 1516 1518 1519 1520 1521 1522 1522 1523 1524 1525 1525 1526 1526 1526 1527 1526 1526 1526 1525 1525 1524 1523 1522 1521 1520 1520 1519 1518 1517 1515 1513 1512 1511 1510 1509 1506 1504 1502
1507 1509 1511 1512 1513 1514 1516 1516 1517 1518 1519 1520 1520 1521 1521 1521 1522 1522 1522 1522 1522 1521 1521 1520 1519 1518 1517 1515 1514 1512 1511 1510 1509 1507 1505 1504 1502 1502 1501 1499 1496 1494 1490
1507 1509 1510 1511 1512 1514 1514 1515 1515 1516 1517 1518 1518 1518 1518 1519 1519 1518 1518 1518 1517 1517 1516 1515 1514 1513 1511 1509 1507 1505 1502 1501 1499 1497 1495 1494 1492 1491 1491 1489 1487 1484 1480
1508 1509 1510 1511 1512 1513 1513 1514 1514 1515 1515 1516 1516 1516 1516 1516 1516 1515 1515 1514 1513 1513 1512 1510 1509 1507 1505 1504 1501 1499 1496 1492 1489 1487 1484 1482 1481 1480 1479 1478 1477 1474 1471
1510 1511 1511 1512 1512 1513 1513 1513 1514 1514 1514 1514 1515 1515 1514 1514 1513 1512 1512 1510 1509 1508 1507 1505 1503 1501 1499 1497 1494 1491 1488 1485 1482 1479 1476 1473 1472 1470 1469 1467 1466 1464 1461
1512 1512 1513 1513 1513 1513 1514 1514 1514 1514 1514 1513 1514 1513 1512 1511 1511 1510 1509 1507 1506 1504 1502 1500 1498 1496 1493 1491 1488 1485 1482 1478 1475 1472 1468 1466 1464 1462 1459 1457 1455 1453 1450
1514 1514 1514 1514 1513 1513 1514 1513 1513 1513 1513 1512 1512 1511 1510 1509 1508 1506 1505 1503 1502 1500 1497 1495 1493 1491 1488 1485 1482 1479 1476 1473 1470 1466 1463 1460 1457 1454 1451 1449 1446 1443 1440
1515 1515 1515 1514 1514 1514 1514 1513 1512 1512 1511 1511 1510 1509 1508 1506 1505 1503 1501 1499 1497 1494 1492 1489 1487 1485 1482 1479 1476 1473 1470 1467 1464 1460 1457 1453 1449 1446 1443 1441 1438 1434 1431
1516 1516 1515 1515 1514 1513 1513 1512 1511 1511 1509 1508 1508 1507 1505 1504 1502 1500 1498 1495 1493 1490 1487 1484 1482 1479 1476 1473 1470 1467 1464 1461 1457 1454 1450 1446 1442 1439 1435 1432 1430 1426 1422
1517 1516 1516 1515 1514 1512 1511 1510 1509 1509 1507 1506 1505 1503 1502 1500 1498 1496 1493 1491 1488 1486 1483 1480 1477 1474 1471 1468 1465 1461 1458 1455 1451 1448 1444 1440 1436 1432 1428 1424 1421 1417 1413
1517 1516 1515 1514 1513 1511 1510 1509 1508 1506 1505 1503 1502 1500 1499 1497 1494 1492 1489 1486 1484 1481 1478 1475 1472 1469 1466 1463 1460 1456 1453 1449 1446 1442 1438 1434 1430 1425 1421 1417 1413 1409 1405
1516 1515 1514 1513 1511 1510 1509 1507 1506 1504 1503 1501 1499 1497 1496 1493 1491 1488 1485 1482 1479 1476 1474 1471 1468 1465 1461 1458 1454 1451 1447 1444 1440 1436 1432 1428 1423 1419 1414 1410 1406 1401 1397
1515 1514 1512 1511 1510 1508 1507 1505 1504 1502 1500 1498 1496 1494 1492 1489 1487 1484 1482 1479 1476 1473 1470 1466 1463 1460 1456 1452 1449 1445 1442 1438 1434 1430 1425 1421 1417 1413 1408 1403 1399 1395 1390
1513 1512 1511 1509 1508 1506 1505 1503 1502 1500 1498 1496 1494 1492 1490 1487 1484 1482 1479 1476 1473 1469 1466 1462 1458 1455 1451 1447 1443 1439 1436 1432 1428 1423 1419 1415 1410 1406 1401 1397 1393 1388 1384
1512 1510 1509 1507 1506 1504 1503 1501 1500 1498 1496 1495 1492 1490 1488 1485 1482 1479 1476 1473 1470 1466 1462 1458 1454 1450 1446 1442 1438 1434 1430 1426 1421 1417 1413 1408 1404 1400 1395 1391 1387 1382 1378
1510 1509 1507 1506 1504 1503 1501 1500 1498 1497 1495 1493 1491 1488 1486 1483 1480 1477 1473 1470 1466 1462 1458 1454 1449 1445 1441 1437 1433 1429 1424 1420 1415 1411 1406 1402 1398 1394 1390 1386 1381 1377 1373
1508 1507 1506 1504 1503 1502 1500 1499 1497 1495 1494 1492 1489 1487 1484 1481 1478 1475 1471 1467 1463 1458 1454 1449 1445 1441 1437 1432 1428 1424 1419 1415 1410 1406 1401 1397 1392 1388 1385 1381 1377 1373 1369
1507 1506 1504 1503 1502 1501 1500 1498 1496 1495 1493 1490 1488 1486 1483 1480 1476 1473 1469 1464 1459 1455 1450 1446 1441 1436 1432 1428 1423 1418 1414 1409 1405 1400 1396 1392 1388 1384 1380 1376 1372 1368 1365
1506 1505 1504 1503 1502 1501 1499 1498 1496 1494 1492 1490 1487 1484 1481 1478 1475 1471 1466 1462 1457 1452 1447 1442 1437 1433 1428 1423 1419 1414 1409 1404 1400 1396 1391 1387 1383 1379 1376 1372 1368 1365 1361